{"data":{"norad_id":57510,"intl_designator":"2023-113R","name":"STARLINK-30153","alt_names":[],"object_type":"PAYLOAD","status":"ACTIVE","operator":null,"country":"US","launch_date":"2023-08-07","launch_site_code":"AFETR","launch_vehicle":null,"mission":null,"orbit_class":"UNKNOWN","rcs_meters":null,"size_class":null,"mass_kg":null,"dimensions":null,"purposes":["comms"],"wikipedia_slug":null,"has_3d_model":false,"image_url":null,"decayed_at":null,"tle_current":{"epoch":"2026-09-20T13:39:52.533792Z","epoch_age_seconds":121688,"freshness":"FRESH","line1":"1 57510U 23113R   26263.56935803 -.00000168  00000+0  34366-5 0  9998","line2":"2 57510  43.0057 355.1534 0001568 264.5449  95.5224 15.27577204173377","mean_motion":15.27577204,"eccentricity":0.0001568,"inclination_deg":43.0057,"raan_deg":355.1534,"arg_perigee_deg":264.5449,"mean_anomaly_deg":95.5224,"bstar":3.4366e-6,"rev_number":17337,"period_min":94.266921254737,"perigee_km":481.98163298965,"apogee_km":484.13330357491,"semimajor_km":6861.1944682823,"source":"CELESTRAK","updated_at":"2026-09-21T09:00:33.635134Z"}}}